OSCAR 7 (AO-7) 1 07530U 74089B 25352.31059106 -.00000032 00000+0 88062-4 0 9998 2 07530 101.9964 358.6368 0012379 116.1155 258.2691 12.53694341337855 PHASE 3B (AO-10) 1 14129U 83058B 25351.74130077 -.00000089 00000+0 00000+0 0 9992 2 14129 26.0452 250.3258 6064658 65.0289 344.8583 2.05873801291751 UOSAT 2 (UO-11) 1 14781U 84021B 25352.16526962 .00001266 00000+0 13638-3 0 9998 2 14781 97.7818 315.1096 0009200 67.1483 293.0705 14.90159442230165 LUSAT (LO-19) 1 20442U 90005G 25352.26764727 .00000127 00000+0 62040-4 0 9999 2 20442 98.8957 3.9899 0011907 21.8374 338.3315 14.34046961876466 EYESAT A (AO-27) 1 22825U 93061C 25352.17322709 .00000104 00000+0 56818-4 0 9992 2 22825 98.7140 54.4533 0007308 271.4072 88.6274 14.30878695681118 ITAMSAT (IO-26) 1 22826U 93061D 25352.13632652 .00000118 00000+0 61723-4 0 9996 2 22826 98.7088 54.3161 0007883 253.1098 106.9220 14.31299679681417 RADIO ROSTO (RS-15) 1 23439U 94085A 25352.27893627 .00000025 00000+0 19229-2 0 9999 2 23439 64.8159 235.7926 0149901 37.4677 323.6585 11.27583082275506 JAS-2 (FO-29) 1 24278U 96046B 25352.24434073 -.00000036 00000+0 39414-6 0 9998 2 24278 98.5459 220.6409 0349392 205.6749 152.6679 13.53262928448699 TECHSAT 1B (GO-32) 1 25397U 98043D 25352.18591935 .00000070 00000+0 50597-4 0 9994 2 25397 98.9924 335.5238 0001903 48.8485 311.2857 14.24378625425569 ISS (ZARYA) 1 25544U 98067A 25352.21621920 .00008098 00000+0 15154-3 0 9993 2 25544 51.6313 115.3593 0003170 265.6107 94.4519 15.49648163543704 PCSAT (NO-44) 1 26931U 01043C 25352.25437010 .00000137 00000+0 82349-4 0 9998 2 26931 67.0515 352.2171 0007420 269.6414 90.3837 14.31857885264544 SAUDISAT 1C (SO-50) 1 27607U 02058C 25352.26985898 .00001659 00000+0 21571-3 0 9998 2 27607 64.5532 328.5061 0072460 295.5272 63.8353 14.82413441237636 CUTE-1 (CO-55) 1 27844U 03031E 25352.28069634 .00000321 00000+0 15836-3 0 9998 2 27844 98.6762 358.1123 0009494 357.5660 2.5471 14.24184102165925 CUBESAT XI-IV (CO-57) 1 27848U 03031J 25351.96874653 .00000271 00000+0 13829-3 0 9995 2 27848 98.6790 357.6621 0009742 16.2976 343.8514 14.23491185165595 MOZHAETS 4 (RS-22) 1 27939U 03042A 25352.29235247 .00001250 00000+0 20278-3 0 9999 2 27939 98.3358 166.6393 0012236 119.0990 5.5906 14.72986384188919 CUBESAT XI-V 1 28895U 05043F 25352.15192799 .00001441 00000+0 23802-3 0 9991 2 28895 98.2721 139.3213 0015238 62.2494 298.0256 14.71920512 75119 CUTE-1.7+APD II (CO-65) 1 32785U 08021C 25351.68477250 .00005656 00000+0 38073-3 0 9996 2 32785 97.8081 324.8433 0007829 290.5969 69.4418 15.07103756957832 SEEDS II (CO-66) 1 32791U 08021J 25351.88918659 .00013927 00000+0 55355-3 0 9990 2 32791 97.7442 337.2123 0001944 180.1538 179.9698 15.25425135959580 YUBILEINY (RS-30) 1 32953U 08025A 25352.34407630 .00000046 00000+0 26365-3 0 9995 2 32953 82.5019 107.9372 0018818 348.6657 11.3997 12.43172331797227 KKS-1 (KISEKI) 1 33499U 09002H 25352.27683360 .00001403 00000+0 18176-3 0 9994 2 33499 98.1182 266.9538 0008487 147.5143 212.6594 14.82453198909383 SWISSCUBE 1 35932U 09051B 25352.17773670 .00001096 00000+0 22849-3 0 9995 2 35932 98.4147 251.8558 0008019 59.8456 300.3538 14.61973180862701 BEESAT-1 1 35933U 09051C 25352.16562787 .00000890 00000+0 19028-3 0 9996 2 35933 98.4077 251.8445 0006539 72.3751 287.8163 14.61290952862748 ITUPSAT1 1 35935U 09051E 25352.20538780 .00000833 00000+0 18356-3 0 9999 2 35935 98.4167 251.2586 0008752 80.5403 279.6786 14.60045313862326 XIWANG-1 (HOPE-1) 1 36122U 09072B 25352.28960174 .00000328 00000+0 97606-3 0 9999 2 36122 100.3775 304.2253 0006981 289.4956 70.5403 13.16434846769208 O/OREOS (USA 219) 1 37224U 10062C 25352.05492000 .00002258 00000+0 22435-3 0 9999 2 37224 71.9699 130.3406 0013398 45.6337 314.5928 14.92705275 89607 JUGNU 1 37839U 11058B 25352.26736150 .00000433 00000+0 86470-4 0 9990 2 37839 19.9624 327.5256 0018424 237.8404 242.5371 14.13698948733392 SRMSAT 1 37841U 11058D 25351.60850188 .00000399 00000+0 73051-4 0 9990 2 37841 19.9720 78.4836 0011885 7.0463 21.2980 14.11513105732132 STRAND-1 1 39090U 13009E 25352.10068801 .00000311 00000+0 11905-3 0 9998 2 39090 98.3821 171.8548 0009584 56.4642 303.7459 14.37009648671053 ZACUBE-1 (TSHEPISOSAT) 1 39417U 13066B 25351.39749824 .00003280 00000+0 27002-3 0 9998 2 39417 97.8056 307.9496 0042001 132.1904 228.2897 14.99124350653477 GOMX-1 1 39430U 13066Q 25352.28418623 .00001918 00000+0 29875-3 0 9998 2 39430 97.6589 199.0625 0129317 298.6887 60.1370 14.68610884643352 CUBEBUG-2 (LO-74) 1 39440U 13066AA 25351.56788106 .00003439 00000+0 33426-3 0 9992 2 39440 97.8708 295.2332 0058016 269.4523 90.0047 14.92015584649893 FUNCUBE-1 (AO-73) 1 39444U 13066AE 25352.16974643 .00006844 00000+0 46451-3 0 9991 2 39444 97.8072 315.5146 0041006 98.0667 262.5215 15.06044527652382 UWE-3 1 39446U 13066AG 25351.84087866 .00002808 00000+0 25521-3 0 9990 2 39446 97.8482 302.1944 0049837 202.2067 157.6996 14.95146450650462 UNISAT-6 1 40012U 14033C 25352.26487888 .00002686 00000+0 30177-3 0 9998 2 40012 97.7616 143.5959 0045275 305.5881 54.1120 14.86838157619262 DUCHIFAT-1 1 40021U 14033M 25352.03579123 .00032157 00000+0 77916-3 0 9995 2 40021 98.0779 24.4047 0007012 17.8288 342.3201 15.41002827627666 QB50P1 1 40025U 14033R 25351.44292485 .00007398 00000+0 40468-3 0 9997 2 40025 98.0962 345.3369 0010959 120.5378 239.6935 15.14542045625483 LILACSAT-2 1 40908U 15049K 25352.30686167 .00014243 00000+0 30470-3 0 9994 2 40908 97.4906 17.8610 0007822 176.2112 183.9197 15.44889825567763 FOX-1A (AO-85) 1 40967U 15058D 25351.97778695 .00003452 00000+0 31875-3 0 9999 2 40967 64.7749 121.6014 0134298 127.9763 233.3570 14.89704017 86561 CAS-2T & KS-1Q 1 41847U 16066G 25352.16574932 .00000899 00000+0 13689-3 0 9992 2 41847 98.4033 64.8533 0342886 318.6851 38.8853 14.44143557478669 RADFXSAT (FOX-1B) 1 43017U 17073E 25352.08257508 .00008266 00000+0 39162-3 0 9990 2 43017 97.4947 218.1576 0159230 231.8950 126.7833 15.08973700438044 DIWATA-2B 1 43678U 18084H 25352.25757376 .00002347 00000+0 19654-3 0 9991 2 43678 98.1019 175.9419 0007605 32.5815 327.5875 14.99464451389099 ES'HAIL 2 1 43700U 18090A 25352.19350057 .00000169 00000+0 00000+0 0 9993 2 43700 0.0180 13.5726 0000946 270.5922 258.3541 1.00271292 25868 FOX-1CLIFF (AO-95) 1 43770U 18099N 25352.11844464 .00010001 00000+0 44046-3 0 9999 2 43770 97.4675 48.3616 0008221 264.2156 95.8143 15.22002381385637 ITASAT 1 43786U 18099AE 25352.10995297 .00006216 00000+0 32514-3 0 9996 2 43786 97.4319 42.3096 0011899 262.7138 97.2742 15.16148963385443 JY1SAT (JO-97) 1 43803U 18099AX 25352.12378156 .00013573 00000+0 51413-3 0 9990 2 43803 97.4422 49.9233 0006298 182.0464 178.0751 15.27009296385936 UWE-4 1 43880U 18111E 25352.24124869 .00023472 00000+0 69919-3 0 9992 2 43880 97.5865 268.9184 0007226 251.1377 108.9083 15.34669060382929 TIANYAN 01 1 44881U 19093C 25352.28899323 .00000907 00000+0 10945-3 0 9995 2 44881 97.7758 63.7967 0012958 327.2592 32.7819 14.86114958324548 RS-44 & BREEZE-KM R/B 1 44909U 19096E 25352.25224434 .00000002 00000+0 -33639-4 0 9994 2 44909 82.5214 99.9459 0217239 207.1700 151.7901 12.79746149279200 SALSAT 1 46495U 20068K 25352.23508451 .00007853 00000+0 30428-3 0 9991 2 46495 97.8779 339.8041 0009356 207.1512 152.9237 15.26417270287726 XW-3 (CAS-9) 1 50466U 21131B 25352.27401274 .00000562 00000+0 18821-3 0 9998 2 50466 98.5052 80.6677 0003093 285.3612 74.7235 14.41119900209052 GREENCUBE (IO-117) 1 53109U 22080E 25352.02348561 -.00000003 00000+0 00000+0 0 9998 2 53109 70.1588 1.2433 0009188 326.6831 33.3249 6.42583162 80422 STRATOSAT-TK 1 (RS52S) 1 57167U 23091B 25352.17987978 .00303299 00000+0 15819-2 0 9995 2 57167 97.5187 65.1091 0005169 305.7901 54.2885 15.80064680137734 UMKA 1 (RS40S) 1 57172U 23091G 25352.27855995 .00005765 00000+0 28419-3 0 9993 2 57172 97.5340 46.7196 0014330 35.5405 324.6780 15.18243621136539 CUBESX-HSE 3 (RS42S) 1 57178U 23091N 25352.31990301 .00012420 00000+0 48568-3 0 9998 2 57178 97.5372 51.0525 0012369 17.9350 342.2322 15.25922816136792 MONITOR-3 (RS58S) 1 57180U 23091Q 25352.26353531 .00009670 00000+0 40680-3 0 9993 2 57180 97.5366 49.6750 0013306 22.3771 337.8044 15.23524469136702 MONITOR-4 (RS57S) 1 57182U 23091S 25352.31841225 .00010067 00000+0 42247-3 0 9996 2 57182 97.5361 49.6914 0013305 22.6834 337.4988 15.23596534136719 MONITOR-2 (RS39S) 1 57184U 23091U 25352.29580950 .00005118 00000+0 26353-3 0 9991 2 57184 97.5365 46.7339 0012375 28.3136 331.8767 15.16792350136515 SVYATOBOR 1 (RS60S) 1 57187U 23091X 25352.27509684 .00007757 00000+0 33353-3 0 9996 2 57187 97.5373 50.3047 0010490 16.0638 344.0929 15.22885116136742 VIZARD-METEO (RS38S) 1 57189U 23091Z 25352.20170942 .00013014 00000+0 45672-3 0 9992 2 57189 97.5364 53.6769 0008282 4.3863 355.7448 15.29524610136962 NANOZOND 1 (RS49S) 1 57190U 23091AA 25352.28590737 .00063095 00000+0 97283-3 0 9999 2 57190 97.5286 62.4293 0004233 337.6428 22.4640 15.53949171137567 POLYTECH-UNIVERSE 3 (R*) 1 57191U 23091AB 25352.27924483 .00004597 00000+0 23552-3 0 9998 2 57191 97.5337 46.2304 0017254 42.5510 317.7056 15.16958592136509 UTMN 2 (RS27S) 1 57203U 23091AP 25352.31118326 .00012103 00000+0 46066-3 0 9995 2 57203 97.5365 52.4505 0009092 8.0601 352.0782 15.26861442136893 KUZGTU 1 (RS47S) 1 57217U 23091AV 25352.24111337 .00011293 00000+0 45423-3 0 9992 2 57217 97.5347 50.2470 0012598 20.9692 339.2059 15.25002082136758 SONATE-2 1 59112U 24043Q 25351.89838435 .00022799 00000+0 47837-3 0 9995 2 59112 97.5329 128.3425 0009179 143.9203 216.2667 15.45346989 99774 MESAT1 1 60209U 24125G 25352.09451983 .00026716 00000+0 53554-3 0 9993 2 60209 97.2516 202.4710 0014585 158.1797 202.0077 15.46576974 81434 OOV-CUBE (TUBSAT-30) 1 60240U 24128F 25351.87425099 .00002479 00000+0 19942-3 0 9998 2 60240 61.9938 137.3103 0058349 95.2949 265.4803 15.01640295 78876 COLIBRI-S (RS67S) 1 61746U 24199M 25352.27870950 .00017547 00000+0 44827-3 0 9995 2 61746 97.3259 220.2125 0008781 208.0739 152.0034 15.39490495109507 HORS 3 (RS81S) 1 61753U 24199U 25352.26192465 .00024089 00000+0 54945-3 0 9991 2 61753 97.3229 220.8296 0006773 211.3844 148.7000 15.42875627109558 HORS 4 (RS82S) 1 61754U 24199V 25352.32022759 .00027813 00000+0 59659-3 0 9992 2 61754 97.3212 221.3287 0006830 209.5601 150.5262 15.44673898109594 HORIZON (RS59S) 1 61757U 24199Y 25352.28348183 .00052400 00000+0 79887-3 0 9997 2 61757 97.3215 223.4682 0006173 185.0588 175.0605 15.54294342109726 ARCTICSAT 1 (RS74S) 1 61762U 24199AD 25352.28509609 .00046227 00000+0 74670-3 0 9990 2 61762 97.3226 223.3106 0006465 181.5028 178.6207 15.52717766109712 SIT-2086 1 61764U 24199AF 25352.26503204 .00028263 00000+0 64129-3 0 9993 2 61764 97.3228 221.5869 0006769 200.9333 159.1639 15.43000798106444 MORDOVIA-IOT (RS50S) 1 61765U 24199AG 25352.32004277 .00157833 00000+0 12350-2 0 9991 2 61765 97.3118 226.1856 0004763 147.2794 212.8765 15.71118709106761 RUZAEVKA 390 (RS44S) 1 61766U 24199AH 25352.32292843 .00092387 00000+0 10193-2 0 9995 2 61766 97.3172 225.1284 0004803 163.0204 197.1216 15.62773638106699 HYPERVIEW 1G (RS66S) 1 61772U 24199AP 25352.30170558 .00038916 00000+0 73558-3 0 9991 2 61772 97.3208 221.8078 0008176 211.5106 148.5656 15.48286099106475 ALTAIR (RS65S) 1 61779U 24199AW 25352.28895734 .00008771 00000+0 27785-3 0 9992 2 61779 97.3261 218.0272 0012500 231.7450 128.2668 15.32893205109362 ASRTU-1 (AO-123) 1 61781U 24199AY 25352.28981016 .00009782 00000+0 31757-3 0 9991 2 61781 97.3249 217.6791 0012989 233.2803 126.7246 15.32067337106194 TUSUR GO (RS78S) 1 61782U 24199AZ 25352.28646089 .00055852 00000+0 87100-3 0 9992 2 61782 97.3172 222.5543 0007005 205.3201 154.7711 15.53647796106526 SAMSAT-IONOSPHERE (RS7*) 1 61784U 24199BB 25352.32510927 .00027146 00000+0 61013-3 0 9990 2 61784 97.3224 220.6042 0009991 219.2674 140.7851 15.43262387109546 RTU MIREA 1 (RS51S) 1 61785U 24199BC 25352.27317848 .00029522 00000+0 63753-3 0 9995 2 61785 97.3220 220.8153 0009616 216.8095 143.2494 15.44438377106400 HADES-R 1 62690U 25009CK 25351.96316463 .00147949 00000+0 17623-2 0 9997 2 62690 97.3878 74.7914 0001195 260.1615 99.9507 15.60601205 51591 TEVEL2-4 1 63213U 25052D 25352.22004022 .00015813 00000+0 59393-3 0 9997 2 63213 97.4108 244.0112 0004821 51.5127 308.6544 15.27261937 42421 TEVEL2-5 1 63214U 25052E 25352.16024927 .00014389 00000+0 54211-3 0 9998 2 63214 97.4108 243.9387 0004810 52.1171 308.0502 15.27182654 42413 TEVEL2-6 1 63215U 25052F 25352.23324875 .00016189 00000+0 61020-3 0 9998 2 63215 97.4110 243.9993 0004904 51.5364 308.6314 15.27139429 42421 TEVEL2-1 1 63217U 25052H 25352.14603100 .00013938 00000+0 53125-3 0 9997 2 63217 97.4083 243.7192 0005200 59.8889 300.2865 15.26801433 42401 TEVEL2-3 1 63218U 25052J 25352.21069043 .00015093 00000+0 57450-3 0 9997 2 63218 97.4085 243.7890 0005277 60.3355 299.8409 15.26827406 42414 TEVEL2-2 1 63219U 25052K 25352.21233311 .00015170 00000+0 57780-3 0 9991 2 63219 97.4085 243.7852 0005222 60.3842 299.7917 15.26806589 42416 TEVEL2-9 1 63237U 25052AD 25352.24637270 .00015204 00000+0 60534-3 0 9995 2 63237 97.4147 243.5175 0009205 66.6642 293.5563 15.25300043 42381 TEVEL2-7 1 63238U 25052AE 25352.19522576 .00014432 00000+0 57750-3 0 9990 2 63238 97.4148 243.4400 0009321 66.9255 293.2964 15.25142317 42374 TEVEL2-8 1 63239U 25052AF 25352.20095479 .00014299 00000+0 57264-3 0 9991 2 63239 97.4151 243.4301 0009321 67.0722 293.1498 15.25116875 42371 HADES-ICM 1 63492U 25052BN 25351.96064983 .00050303 00000+0 12519-2 0 9999 2 63492 97.4082 245.5345 0011624 61.2981 298.9432 15.40039410 42500 INNOSAT 16 (RS92S7) 1 64878U 25155C 25352.27119125 .00003884 00000+0 16883-3 0 9997 2 64878 97.4335 315.5843 0013044 100.3502 259.9205 15.22802707 53114 GEOSCAN 6 (RS92S6) 1 64879U 25155D 25352.18500726 .00009636 00000+0 38093-3 0 9997 2 64879 97.4336 315.8700 0010726 95.5396 264.7066 15.25641911 53122 GEOSCAN 1 (RS92S1) 1 64880U 25155E 25352.23936656 .00010632 00000+0 41653-3 0 9994 2 64880 97.4338 315.9558 0010668 95.6861 264.5594 15.25915306 53138 239ALFEROV (RS61S) 1 64881U 25155F 25352.26320223 .00013539 00000+0 51539-3 0 9998 2 64881 97.4345 316.0976 0010455 95.3870 264.8562 15.26812918 53149 GEOSCAN 2 (RS92S2) 1 64890U 25155Q 25352.20278851 .00010819 00000+0 41974-3 0 9991 2 64890 97.4335 315.9929 0009975 85.4600 274.7778 15.26244260 53137 GEOSCAN 5 (RS92S5) 1 64891U 25155R 25352.22628841 .00013009 00000+0 49024-3 0 9990 2 64891 97.4339 316.1244 0009182 100.0775 260.1500 15.27170427 53149 GEOSCAN 4 (RS92S4) 1 64892U 25155S 25352.28865229 .00013248 00000+0 49808-3 0 9995 2 64892 97.4341 316.1975 0009208 100.4055 259.8222 15.27241678 53152 GEOSCAN 3 (RS92S3) 1 64893U 25155T 25352.19030926 .00014838 00000+0 54477-3 0 9998 2 64893 97.4336 316.1697 0009001 102.0748 258.1501 15.28001893 53141 INNOSAT 3 (RS92S0) 1 64894U 25155U 25352.22454322 .00025576 00000+0 86458-3 0 9998 2 64894 97.4320 316.4167 0009005 102.6643 257.5605 15.30585388 53163